Hourly Data Report for September 09, 2017

All times are specified in Local Standard Time (LST). Add 1 hour to adjust for Daylight Saving Time where and when it is observed.

ST. STEPHEN
NEW BRUNSWICK

45°12'36.600" N
67°15'10.300" W
26.10 m
8104935
71607
WSS

Download Data

Hourly Data (September 2017)
Hourly Data Report for September 9, 2017
Temp Definition
°C
Dew Point Temp Definition
°C
Rel Hum Definition
%
Wind Dir Definition
10's deg

Wind Spd Definition
km/h
Visibility Definition
km
Stn Press Definition
kPa
Hmdx Definition


Wind Chill Definition


Weather Definition


TIME
00:00 8.8 8.1 95   0   101.54     LegendNANA
01:00 8.6 7.9 96 9 1   101.56     LegendNANA
02:00 7.5 6.9 96 9 2   101.55     LegendNANA
03:00 7.3 6.7 96   0   101.57     LegendNANA
04:00 8.3 7.7 96   0   101.62     LegendNANA
05:00 8.8 8.3 97 25 2   101.62     LegendNANA
06:00 9.6 9.0 97 28 2   101.68     LegendNANA
07:00 11.0 10.5 97 27 2   101.75     LegendNANA
08:00 11.4 10.8 96 14 3   101.81     LegendNANA
09:00 11.9 11.3 96   0   101.84     LegendNANA
10:00 12.7 12.2 97 2 2   101.90     LegendNANA
11:00 15.0 13.8 93 21 6   101.87     LegendNANA
12:00 18.5 14.4 77 18 6   101.84     LegendNANA
13:00 19.6 14.1 70 15 7   101.81     LegendNANA
14:00 16.0 14.1 89 7 4   101.79     LegendNANA
15:00 16.1 14.4 90 26 4   101.80     LegendNANA
16:00 16.2 12.7 80 32 7   101.85     LegendNANA
17:00 15.0 12.8 87 33 6   101.89     LegendNANA
18:00 14.5 12.7 89   0   101.90     LegendNANA
19:00 13.5 12.3 92 29 2   101.93     LegendNANA
20:00 12.9 12.1 95 28 3   101.96     LegendNANA
21:00 13.2 12.5 96 29 3   102.00     LegendNANA
22:00 12.4 11.6 95 30 1   102.03     LegendNANA
23:00 12.5 11.7 95 33 2   102.02     LegendNANA

Notes on Data Quality.

Legend

  • E = Estimated
  • M = Missing
  • NA = Not Available
  • ‡ = Partner data that is not subject to review by the National Climate Archives
Date modified: